Event-Kalender
Terminkalender Drucken Email help
Jahresansicht Monatsansicht Wochenansicht Heute Suche Zum ausgwählten Monat wechseln
Termine für
Samstag, 19. August 2017



JEvents v1.5.5e   Copyright © 2006-2011

Zufallsbild

Aktuelle Termine

Mo Di Mi Do Fr Sa So
31 1 2 3 4 5 6
7 8 9 10 11 12 13
14 15 16 17 18 19 20
21 22 23 24 25 26 27
28 29 30 31 1 2 3

Pilotenwetter

[source: ADDS]
METAR
EDDH 120350Z 30007KT 6000 -RASN BKN003 00/00 Q0985 R05/610295 R15/610295 NOSIG =
TAF
TAF EDDH 112300Z 1200/1306 05004KT 6000 BKN004 PROB30 TEMPO 1200/1203 4500 -RA BECMG 1201/1203 29008KT TEMPO 1203/1213 3500 RASN BKN007 PROB30 TEMPO 1208/1213 2000 SN BECMG 1213/1215 BKN007 PROB30 TEMPO 1215/1219 SCT007 BKN020 BECMG 1219/1222 22011KT BKN011 BECMG 1223/1301 BKN008 BECMG 1302/1304 SCT025 BKN040 =